Regional Weather Roundup
Issued by NWS Kansas City/Pleasant Hill, MO

Home | Current Version | Previous Version | Text Only | Print | Product List | Glossary On
Versions: 1 2 3 4 5 6 7 8 9 10 11 12 13 14 15 16 17 18 19 20 21 22 23 24 25 26 27 28 29 30 31 32 33 34 35 36 37 38 39 40 41 42 43 44 45 46 47 48 49 50
000
ASUS43 KEAX 011010
RWREAX

WEATHER ROUNDUP FOR EASTERN KANSAS AND NORTHWEST MISSOURI
NATIONAL WEATHER SERVICE KANSAS CITY/PLEASANT HILL MO
500 AM CDT SUN MAY 01 2016

KSZ040-057-103>105-MOZ028-029-037-043-011100-
...KANSAS CITY METROPOLITAN AREA...

CITY           SKY/WX    TMP DP  RH WIND       PRES   REMARKS
K.C. INTL      CLOUDY    51  47  86 W5        29.89R
K.C. DOWNTOWN  CLOUDY    54  47  77 SW6       29.89R
LEES SUMMIT    CLEAR     50  46  86 SW6       29.90R
OLATHE - IXD   CLOUDY    50  45  83 W7        29.91S
OLATHE - OJC   CLOUDY    50  45  83 W6        29.90S
LAWRENCE       MOCLDY    48  45  89 W6        29.91S

$$

MOZ001>008-011>017-020>025-030>033-038>040-044>046-053-054-011100-
...NORTHERN AND CENTRAL MISSOURI...

CITY           SKY/WX    TMP DP  RH WIND       PRES   REMARKS
ST. JOSEPH     CLOUDY    53  50  89 SW7       29.89S
MOSBY          CLOUDY    54  46  76 SW5       29.89R
WARRENSBURG    CLEAR     50  45  81 CALM      29.89S
WHITEMAN AFB   PTCLDY    51  50  99 W5        29.88R
CLINTON        PTCLDY    50  46  87 W5        29.91S
SEDALIA        CLEAR     53  48  83 W6        29.90R
WARSAW         NOT AVBL
CHILLICOTHE      N/A     56  54  93 N3        29.90R
KIRKSVILLE     FOG       48  47  96 NE7       29.91R VSB 3/4

$$

MOZ041-047>049-056>058-063>065-088>090-097-011100-
...EASTERN AND SOUTHERN MISSOURI...

CITY           SKY/WX    TMP DP  RH WIND       PRES   REMARKS
ST. LOUIS INTL MOCLDY    59  56  89 CALM      29.86R
SPIRIT OF STL  CLEAR     55  55 100 CALM      29.85S FOG
COLUMBIA       CLOUDY    55  54  96 SW3       29.87R
JEFFERSON CITY MOCLDY    55  53  93 CALM      29.87R
ROLLA          CLEAR     53  50  89 W7        29.87R
OSAGE BEACH    CLEAR     52  43  71 W5        29.90R
SPRINGFIELD    CLEAR     50  45  83 NW5       29.92R
JOPLIN         CLEAR     47  45  93 SW3       29.93F
WEST PLAINS    FOG       53  51  93 CALM      29.90S VSB 1/4

$$

IAZ060-094-KSZ022-034>040-054-083-096-NEZ052-066-093-011100-
...KANSAS...SOUTHEAST NEBRASKA AND IOWA...

CITY           SKY/WX    TMP DP  RH WIND       PRES   REMARKS
TOPEKA         CLEAR     45  43  93 W3        29.91R
MANHATTAN      CLOUDY    50  43  77 W5        29.91S
EMPORIA        CLEAR     45  42  89 W7        29.92S
CHANUTE        CLEAR     46  42  86 W3        29.92F
WICHITA        CLEAR     43  39  86 W9        29.97R
OMAHA          DRIZZLE   45  43  93 NE12      29.94R
LINCOLN        LGT RAIN  46  44  93 NE17      29.93R FOG
FALLS CITY     CLOUDY    50  48  93 CALM      29.88S
LAMONI         CLOUDY    45  45 100 NE13      29.91R FOG
DES MOINES     LGT RAIN  45  42  89 E7        29.96R FOG

$$




USA.gov is the U.S. government's official web portal to all federal, state and local government web resources and services.